HBKEY LSZH-EDDN

Flight info

Callsign HBKEY
Flight time N/A
Altitude 9000
Route ZUE T125 ROMIR N851 VEDOK/N0174F060 N851 LOKTA/N0176F070 DCT TEDGO N869 LETKU LETKU1V
Aircraft DA42/L-SBDGRY/S

Departure

Time 2026-05-04 19:13
Airport Zürich Airport (LSZH)

Arrival

Time N/A
Airport Nuremberg Airport (EDDN)
Time Latitude Longitude Altitude Speed Heading
2026-05-04 19:07 47.45793 8.56293 1394 ft 0 kts 186°
2026-05-04 19:12 47.45766 8.56290 1396 ft 16 kts 184°
2026-05-04 19:13 47.45726 8.56108 1396 ft 47 kts 277°
2026-05-04 19:13 47.45779 8.55348 1397 ft 96 kts 275°
2026-05-04 19:13 47.45844 8.54308 1643 ft 103 kts 273°
2026-05-04 19:13 47.45911 8.53269 2044 ft 101 kts 275°
2026-05-04 19:14 47.45986 8.52238 2434 ft 101 kts 276°
2026-05-04 19:14 47.46062 8.51215 2755 ft 102 kts 276°
2026-05-04 19:14 47.46246 8.48660 3544 ft 103 kts 275°
2026-05-04 19:14 47.46070 8.47729 3841 ft 104 kts 232°
2026-05-04 19:15 47.45461 8.47143 4153 ft 107 kts 208°
2026-05-04 19:15 47.44801 8.46639 4477 ft 107 kts 210°
2026-05-04 19:15 47.44206 8.46002 4797 ft 106 kts 237°
2026-05-04 19:15 47.43952 8.44992 5117 ft 106 kts 255°
2026-05-04 19:16 47.43754 8.43942 5438 ft 106 kts 255°
2026-05-04 19:16 47.43560 8.42883 5756 ft 107 kts 256°
2026-05-04 19:16 47.43367 8.41816 6061 ft 108 kts 256°
2026-05-04 19:16 47.43176 8.40758 6385 ft 108 kts 256°
2026-05-04 19:17 47.42981 8.39682 6705 ft 109 kts 256°
2026-05-04 19:17 47.42717 8.38640 7022 ft 110 kts 234°
2026-05-04 19:17 47.42085 8.38026 7335 ft 113 kts 194°
2026-05-04 19:17 47.41315 8.38186 7645 ft 116 kts 152°
2026-05-04 19:18 47.40811 8.39099 7965 ft 119 kts 108°
2026-05-04 19:18 47.40663 8.40297 8266 ft 119 kts 99°
2026-05-04 19:18 47.40537 8.41512 8580 ft 120 kts 99°
2026-05-04 19:18 47.40414 8.42732 8892 ft 121 kts 99°
2026-05-04 19:19 47.40539 8.44003 8996 ft 139 kts 61°
2026-05-04 19:19 47.41128 8.45219 9009 ft 156 kts 51°
2026-05-04 19:19 47.41821 8.46538 9007 ft 168 kts 52°
2026-05-04 19:19 47.42539 8.47950 9008 ft 175 kts 53°
2026-05-04 19:20 47.43272 8.49419 9007 ft 179 kts 53°
2026-05-04 19:20 47.44015 8.50916 9012 ft 182 kts 53°
2026-05-04 19:20 47.44765 8.52432 9018 ft 183 kts 53°
2026-05-04 19:20 47.45520 8.53955 9015 ft 184 kts 53°
2026-05-04 19:21 47.46277 8.55483 9012 ft 184 kts 53°
2026-05-04 19:21 47.47034 8.57015 9007 ft 185 kts 53°
2026-05-04 19:21 47.47794 8.58552 9005 ft 185 kts 53°
2026-05-04 19:21 47.48554 8.60091 9016 ft 185 kts 53°
2026-05-04 19:22 47.49314 8.61631 9007 ft 186 kts 53°
2026-05-04 19:22 47.50066 8.63153 9012 ft 186 kts 53°
2026-05-04 19:22 47.50827 8.64695 9017 ft 185 kts 53°
2026-05-04 19:22 47.51585 8.66234 9006 ft 185 kts 53°
2026-05-04 19:23 47.52344 8.67774 9006 ft 185 kts 53°
2026-05-04 19:23 47.53103 8.69315 9006 ft 185 kts 53°
2026-05-04 19:23 47.53862 8.70857 9006 ft 185 kts 53°
2026-05-04 19:23 47.54621 8.72400 9006 ft 185 kts 53°
2026-05-04 19:24 47.55380 8.73945 9006 ft 186 kts 53°
2026-05-04 19:24 47.55715 8.74626 9005 ft 186 kts 53°
2026-05-04 19:25 47.56281 8.75781 9005 ft 185 kts 53°
2026-05-04 19:26 47.57039 8.77327 9004 ft 185 kts 53°
2026-05-04 19:26 47.57797 8.78869 9004 ft 185 kts 53°
2026-05-04 19:26 47.58554 8.80413 9004 ft 185 kts 53°
2026-05-04 19:26 47.59690 8.83097 9003 ft 185 kts 64°
2026-05-04 19:27 47.62459 8.89511 9002 ft 185 kts 58°
2026-05-04 19:27 47.65164 8.95998 9002 ft 185 kts 57°
2026-05-04 19:27 47.67200 9.00889 9002 ft 185 kts 57°
2026-05-04 19:27 47.67877 9.02515 9001 ft 185 kts 58°
2026-05-04 19:28 47.68553 9.04142 9001 ft 185 kts 58°
2026-05-04 19:28 47.69229 9.05768 9002 ft 185 kts 58°
2026-05-04 19:28 47.69906 9.07400 9002 ft 185 kts 58°
2026-05-04 19:28 47.70585 9.09026 9001 ft 185 kts 56°
2026-05-04 19:29 47.71490 9.10327 8998 ft 184 kts 31°
2026-05-04 19:29 47.72676 9.10997 8995 ft 183 kts
2026-05-04 19:29 47.73938 9.11218 8997 ft 183 kts
2026-05-04 19:29 47.75202 9.11429 8997 ft 183 kts
2026-05-04 19:30 47.76466 9.11636 8997 ft 183 kts
2026-05-04 19:30 47.77730 9.11844 8997 ft 183 kts
2026-05-04 19:30 47.78992 9.12054 8997 ft 183 kts
2026-05-04 19:30 47.80257 9.12258 8997 ft 183 kts
2026-05-04 19:31 47.81521 9.12457 8998 ft 183 kts
2026-05-04 19:31 47.82787 9.12658 8997 ft 183 kts
2026-05-04 19:31 47.84051 9.12861 8997 ft 183 kts
2026-05-04 19:31 47.85314 9.13073 8998 ft 183 kts
2026-05-04 19:32 47.86451 9.13266 8997 ft 183 kts
2026-05-04 19:33 47.87316 9.13411 8997 ft 183 kts
2026-05-04 19:33 47.88582 9.13622 8997 ft 183 kts
2026-05-04 19:33 47.89849 9.13833 8997 ft 183 kts
2026-05-04 19:33 47.91116 9.14043 8997 ft 183 kts
2026-05-04 19:34 47.92381 9.14252 8997 ft 183 kts
2026-05-04 19:34 47.93646 9.14461 8997 ft 183 kts
2026-05-04 19:34 47.94894 9.14668 8997 ft 183 kts
2026-05-04 19:34 47.96158 9.14878 8997 ft 183 kts
2026-05-04 19:35 47.97424 9.15088 8997 ft 183 kts
2026-05-04 19:35 47.98688 9.15297 8997 ft 183 kts
2026-05-04 19:35 47.99953 9.15507 8997 ft 183 kts
2026-05-04 19:35 48.01209 9.15718 8996 ft 179 kts
2026-05-04 19:36 48.02435 9.15921 8994 ft 176 kts
2026-05-04 19:36 48.03641 9.16122 8993 ft 173 kts
2026-05-04 19:36 48.04834 9.16320 8992 ft 172 kts
2026-05-04 19:36 48.06020 9.16515 8992 ft 171 kts
2026-05-04 19:37 48.07203 9.16710 8992 ft 171 kts
2026-05-04 19:37 48.08366 9.16902 8992 ft 170 kts
2026-05-04 19:37 48.09546 9.17097 8992 ft 170 kts
2026-05-04 19:37 48.10723 9.17292 8992 ft 170 kts
2026-05-04 19:38 48.11901 9.17487 8992 ft 170 kts
2026-05-04 19:38 48.13077 9.17682 8991 ft 170 kts
2026-05-04 19:38 48.14251 9.17876 8991 ft 170 kts
2026-05-04 19:38 48.15423 9.18070 8991 ft 170 kts
2026-05-04 19:39 48.16596 9.18265 8991 ft 170 kts
2026-05-04 19:39 48.17768 9.18461 8992 ft 170 kts
2026-05-04 19:39 48.18943 9.18658 8991 ft 170 kts
2026-05-04 19:39 48.20119 9.18855 8992 ft 170 kts
2026-05-04 19:40 48.21280 9.19051 8992 ft 170 kts
2026-05-04 19:40 48.22459 9.19249 8992 ft 171 kts
2026-05-04 19:40 48.23638 9.19448 8991 ft 170 kts
2026-05-04 19:40 48.24815 9.19645 8992 ft 170 kts
2026-05-04 19:41 48.25993 9.19843 8991 ft 170 kts
2026-05-04 19:41 48.27169 9.20042 8991 ft 170 kts
2026-05-04 19:41 48.28346 9.20240 8992 ft 170 kts
2026-05-04 19:41 48.29524 9.20438 8991 ft 170 kts
2026-05-04 19:42 48.30700 9.20635 8991 ft 170 kts
2026-05-04 19:42 48.31876 9.20834 8991 ft 170 kts
2026-05-04 19:42 48.33051 9.21032 8992 ft 170 kts
2026-05-04 19:42 48.34226 9.21232 8992 ft 170 kts
2026-05-04 19:43 48.35386 9.21427 8991 ft 170 kts
2026-05-04 19:43 48.36563 9.21626 8991 ft 170 kts
2026-05-04 19:43 48.37737 9.21826 8992 ft 170 kts
2026-05-04 19:43 48.38917 9.22023 8992 ft 170 kts
2026-05-04 19:44 48.40119 9.22226 8996 ft 177 kts
2026-05-04 19:44 48.41359 9.22436 8996 ft 181 kts
2026-05-04 19:44 48.42612 9.22650 8997 ft 182 kts
2026-05-04 19:44 48.43871 9.22865 8996 ft 182 kts
2026-05-04 19:45 48.45132 9.23078 8997 ft 182 kts
2026-05-04 19:45 48.46394 9.23292 8998 ft 183 kts
2026-05-04 19:45 48.47661 9.23508 8997 ft 183 kts
2026-05-04 19:45 48.48912 9.23720 8998 ft 184 kts
2026-05-04 19:46 48.50184 9.23936 8998 ft 184 kts
2026-05-04 19:46 48.51457 9.24152 8997 ft 184 kts
2026-05-04 19:46 48.52727 9.24368 8997 ft 184 kts
2026-05-04 19:46 48.53997 9.24584 8997 ft 184 kts
2026-05-04 19:47 48.55266 9.24800 8997 ft 184 kts
2026-05-04 19:47 48.56535 9.25016 8997 ft 183 kts
2026-05-04 19:47 48.57802 9.25232 8997 ft 183 kts
2026-05-04 19:47 48.59069 9.25448 8997 ft 183 kts
2026-05-04 19:48 48.60338 9.25665 8997 ft 183 kts
2026-05-04 19:48 48.61571 9.26136 8993 ft 185 kts 24°
2026-05-04 19:48 48.62593 9.27305 8991 ft 186 kts 48°
2026-05-04 19:48 48.63407 9.28787 8992 ft 186 kts 50°
2026-05-04 19:49 48.64230 9.30296 8992 ft 186 kts 50°
2026-05-04 19:49 48.65051 9.31806 8992 ft 186 kts 50°
2026-05-04 19:49 48.65846 9.33270 9280 ft 170 kts 50°
2026-05-04 19:49 48.66563 9.34590 9621 ft 160 kts 50°
2026-05-04 19:50 48.67277 9.35902 9846 ft 162 kts 50°
2026-05-04 19:50 48.67993 9.37220 10090 ft 162 kts 50°
2026-05-04 19:50 48.68711 9.38543 10331 ft 163 kts 50°
2026-05-04 19:50 48.69432 9.39872 10567 ft 164 kts 50°
2026-05-04 19:51 48.70154 9.41204 10804 ft 164 kts 50°
2026-05-04 19:51 48.70870 9.42525 11040 ft 165 kts 50°
2026-05-04 19:51 48.71599 9.43870 11274 ft 166 kts 50°
2026-05-04 19:51 48.72331 9.45221 11510 ft 166 kts 50°
2026-05-04 19:52 48.73064 9.46577 11739 ft 167 kts 50°
2026-05-04 19:52 48.73801 9.47938 11983 ft 167 kts 50°
2026-05-04 19:52 48.74540 9.49304 12215 ft 168 kts 50°
2026-05-04 19:52 48.75283 9.50678 12448 ft 169 kts 50°
2026-05-04 19:53 48.76027 9.52055 12679 ft 169 kts 50°
2026-05-04 19:53 48.76775 9.53439 12912 ft 170 kts 50°
2026-05-04 19:53 48.77515 9.54811 13134 ft 171 kts 50°
2026-05-04 19:53 48.78268 9.56206 13362 ft 171 kts 50°
2026-05-04 19:54 48.79023 9.57607 13586 ft 172 kts 50°
2026-05-04 19:54 48.79779 9.59009 13798 ft 172 kts 50°
2026-05-04 19:54 48.80537 9.60416 14022 ft 173 kts 50°
2026-05-04 19:54 48.81298 9.61830 14231 ft 173 kts 50°
2026-05-04 19:55 48.82061 9.63248 14431 ft 174 kts 50°
2026-05-04 19:55 48.82827 9.64673 14628 ft 174 kts 50°
2026-05-04 19:55 48.83595 9.66102 14814 ft 175 kts 50°
2026-05-04 19:55 48.84368 9.67541 14997 ft 176 kts 50°
2026-05-04 19:56 48.85131 9.68961 15156 ft 176 kts 50°
2026-05-04 19:56 48.85906 9.70406 15315 ft 177 kts 50°
2026-05-04 19:56 48.86683 9.71855 15471 ft 177 kts 50°
2026-05-04 19:56 48.87462 9.73307 15623 ft 178 kts 50°
2026-05-04 19:57 48.88243 9.74765 15768 ft 178 kts 50°
2026-05-04 19:57 48.89025 9.76226 15914 ft 178 kts 50°
2026-05-04 19:57 48.89813 9.77700 15994 ft 182 kts 50°
2026-05-04 19:57 48.90594 9.79261 15997 ft 189 kts 53°
2026-05-04 19:58 48.91385 9.80884 15998 ft 193 kts 51°
2026-05-04 19:58 48.92229 9.82492 15999 ft 196 kts 50°
2026-05-04 19:58 48.93096 9.84102 16000 ft 198 kts 50°
2026-05-04 19:58 48.93968 9.85724 16000 ft 199 kts 50°
2026-05-04 19:59 48.94830 9.87335 16001 ft 199 kts 50°
2026-05-04 19:59 48.95706 9.88975 16001 ft 200 kts 50°
2026-05-04 19:59 48.96584 9.90616 16000 ft 200 kts 49°
2026-05-04 19:59 48.97506 9.92200 16000 ft 200 kts 47°
2026-05-04 20:00 48.98410 9.93810 16001 ft 200 kts 50°
2026-05-04 20:00 48.99287 9.95457 16001 ft 200 kts 50°
2026-05-04 20:00 49.00160 9.97112 16001 ft 200 kts 50°
2026-05-04 20:00 49.01035 9.98763 16001 ft 200 kts 50°
2026-05-04 20:01 49.01911 10.00413 16001 ft 200 kts 50°
2026-05-04 20:01 49.02786 10.02064 16000 ft 200 kts 50°
2026-05-04 20:01 49.03366 10.03157 16000 ft 200 kts 50°
2026-05-04 20:01 49.04524 10.05343 16001 ft 200 kts 50°
2026-05-04 20:02 49.05399 10.06997 16001 ft 200 kts 50°
2026-05-04 20:02 49.06272 10.08649 16001 ft 200 kts 50°
2026-05-04 20:02 49.07146 10.10302 16001 ft 200 kts 50°
2026-05-04 20:02 49.08020 10.11956 16001 ft 200 kts 50°
2026-05-04 20:03 49.08893 10.13610 16001 ft 200 kts 50°
2026-05-04 20:03 49.09471 10.14705 16001 ft 200 kts 50°
2026-05-04 20:03 49.10343 10.16359 16001 ft 200 kts 50°
2026-05-04 20:03 49.11217 10.18018 15960 ft 202 kts 50°
2026-05-04 20:04 49.12110 10.19715 15785 ft 207 kts 50°
2026-05-04 20:04 49.13016 10.21438 15611 ft 209 kts 50°
2026-05-04 20:04 49.13930 10.23175 15437 ft 210 kts 50°
2026-05-04 20:04 49.14920 10.24821 15260 ft 211 kts 44°
2026-05-04 20:05 49.15950 10.26414 15086 ft 211 kts 45°
2026-05-04 20:05 49.16978 10.28011 14910 ft 211 kts 45°
2026-05-04 20:05 49.17992 10.29583 14738 ft 210 kts 44°
2026-05-04 20:05 49.19018 10.31173 14562 ft 210 kts 44°
2026-05-04 20:06 49.20044 10.32763 14388 ft 210 kts 44°
2026-05-04 20:06 49.21067 10.34350 14212 ft 209 kts 45°
2026-05-04 20:06 49.22088 10.35937 14037 ft 209 kts 45°
2026-05-04 20:06 49.23107 10.37520 13862 ft 209 kts 45°
2026-05-04 20:07 49.24125 10.39098 13686 ft 208 kts 44°
2026-05-04 20:07 49.25149 10.40658 13511 ft 208 kts 44°
2026-05-04 20:07 49.26173 10.42213 13336 ft 207 kts 44°
2026-05-04 20:07 49.27192 10.43768 13161 ft 207 kts 44°
2026-05-04 20:08 49.28209 10.45322 12985 ft 206 kts 44°
2026-05-04 20:08 49.29223 10.46873 12810 ft 206 kts 44°
2026-05-04 20:08 49.30222 10.48401 12638 ft 206 kts 44°
2026-05-04 20:08 49.31232 10.49948 12463 ft 205 kts 44°
2026-05-04 20:09 49.32240 10.51492 12287 ft 205 kts 44°
2026-05-04 20:09 49.33230 10.53056 12107 ft 205 kts 51°
2026-05-04 20:09 49.33753 10.55062 11925 ft 205 kts 82°
2026-05-04 20:09 49.33818 10.57262 11684 ft 207 kts 87°
2026-05-04 20:10 49.33937 10.59462 11483 ft 207 kts 83°
2026-05-04 20:10 49.34141 10.61637 11283 ft 206 kts 81°
2026-05-04 20:10 49.34365 10.63803 11084 ft 205 kts 81°
2026-05-04 20:10 49.34581 10.65964 10883 ft 205 kts 81°
2026-05-04 20:11 49.34791 10.68121 10683 ft 204 kts 81°
2026-05-04 20:11 49.35001 10.70276 10483 ft 204 kts 81°
2026-05-04 20:11 49.35207 10.72395 10286 ft 204 kts 81°
2026-05-04 20:11 49.35348 10.73842 10150 ft 203 kts 81°